TIANZHOU 1

Last updated on Sept. 22, 2017, 12:15 a.m. UTC

1 42684U 17021A   17264.10196765  .00025036  00000-0  31524-3 0  9994
2 42684  42.7846 145.1653 0002796 246.0577 114.0462 15.59122908 23989

Satellite is not in orbit.